Temp
20 20 20 20 19 19 20 20 19 19 19 19 18 19 19 19 18 18 18 18 18 18 17 18 18 18 17 18 17 17 17 18 18 18 18 18 17 17 17 17 17 18 17
20 20 20 20 20 19 20 20 20 19 19 19 18 18 18 19 18 19 19 18 18 18 18 17 17 17 17 17 17 17 17 18 18 18 18 17 17 17 17 17 17 17 17
20 20 20 20 20 20 19 19 20 20 19 19 19 19 19 19 19 19 19 19 18 18 18 17 17 17 17 18 17 17 17 17 17 18 18 18 17 17 17 17 17 17 17
19 20 20 20 20 20 19 19 19 19 19 19 19 19 19 19 19 19 18 18 19 18 18 18 18 18 17 17 18 18 17 17 17 17 18 18 18 17 17 17 17 17 17
20 20 20 19 19 19 19 19 19 19 19 19 20 20 20 19 19 19 19 18 19 19 18 18 18 18 18 18 18 18 18 17 17 18 18 18 18 17 18 17 17 16 17
20 20 19 20 20 19 19 19 19 19 19 19 19 19 19 19 19 19 19 18 18 18 18 18 18 18 18 18 18 18 18 18 18 18 18 18 17 17 17 17 16 16 16
20 19 19 19 19 20 20 19 19 19 19 19 19 19 19 19 19 19 19 18 18 18 18 18 18 18 18 18 18 18 18 18 17 18 18 18 18 17 17 16 16 16 16
19 19 19 19 19 19 19 19 19 19 19 19 19 19 18 18 18 19 19 19 18 18 18 18 18 18 18 18 18 18 18 18 18 18 18 18 17 17 17 17 16 16 16
19 19 19 18 18 18 19 18 18 18 18 18 18 18 18 18 18 18 18 18 18 18 18 18 18 18 18 17 18 18 18 18 18 18 18 18 18 17 17 17 16 16 16
18 19 19 19 19 19 19 19 19 19 19 19 19 18 18 18 18 18 18 18 18 18 18 18 18 18 18 18 17 17 18 18 18 18 18 18 18 18 17 18 17 16 16
19 19 19 19 19 19 19 19 19 19 19 19 19 19 19 19 18 18 18 18 18 18 18 18 18 17 17 17 17 17 17 17 18 18 18 18 18 18 17 17 17 17 16
18 18 18 18 19 19 19 19 19 19 19 19 18 18 18 18 18 18 18 18 18 18 18 18 18 17 17 17 17 17 17 17 17 18 18 18 18 18 18 17 17 17 16
18 18 18 18 18 18 18 18 18 18 18 18 17 17 17 17 17 18 18 18 18 18 18 17 17 17 17 17 17 17 17 17 17 17 18 18 18 18 17 18 17 17 17
17 17 17 17 17 17 17 17 17 17 17 16 16 16 16 16 16 16 16 16 16 17 17 17 17 17 17 17 16 16 16 16 17 17 18 18 18 18 18 17 18 17 17
17 17 17 17 16 16 16 16 15 15 15 15 15 15 15 15 15 15 15 15 15 16 16 16 16 16 16 16 16 16 16 16 16 16 17 18 18 18 18 18 18 17 17
17 17 16 16 15 15 15 15 15 14 14 14 14 14 13 13 13 14 14 14 14 14 14 15 15 15 15 15 16 16 16 16 15 16 16 16 17 17 18 18 17 18 17
17 16 16 15 15 15 14 14 14 13 13 13 13 12 12 12 12 12 12 13 13 13 13 14 14 14 14 14 14 15 15 15 15 16 16 16 16 16 17 17 18 18 18
16 16 15 15 15 14 14 13 13 13 12 12 12 12 12 11 11 11 12 12 12 12 12 12 12 12 12 12 13 13 14 14 15 15 15 15 16 17 17 17 17 17 17
16 15 15 14 14 14 13 13 12 12 12 12 11 11 11 10 10 10 11 11 11 11 11 11 11 10 11 11 11 12 13 13 14 14 15 15 16 16 16 16 17 16 16
15 15 14 14 14 13 13 13 12 12 11 11 10 10 9 9 9 10 10 10 10 10 11 10 10 10 10 10 10 11 12 13 13 14 15 15 15 16 16 16 16 16 16
15 14 14 14 13 13 12 12 12 11 10 10 9 9 9 9 8 9 9 10 10 10 10 10 10 10 10 10 10 10 11 13 13 13 13 14 14 15 15 15 15 15 15
15 14 14 14 13 13 12 11 11 10 9 9 8 8 9 8 8 9 9 10 10 10 10 10 10 9 9 10 9 9 9 11 11 13 13 13 13 14 15 15 15 14 15
14 14 14 14 13 12 12 11 11 10 9 9 8 8 9 9 9 9 9 10 10 10 10 10 10 9 8 9 9 9 9 10 10 12 13 13 13 14 14 15 15 15 15
15 15 14 13 13 12 12 11 10 9 8 8 8 8 9 9 9 9 9 10 10 10 10 10 10 9 9 9 9 9 9 9 8 9 11 12 13 13 14 14 14 14 15
15 15 14 13 13 12 12 11 10 9 8 8 8 8 9 9 9 9 9 10 10 10 10 10 10 10 9 8 8 8 8 9 9 8 9 10 11 12 13 14 14 14 14
15 14 14 13 13 12 12 11 9 9 8 8 8 9 9 9 9 9 9 9 9 10 10 10 10 10 9 9 9 9 8 8 8 8 9 9 9 11 12 14 14 14 13
Height
827 828 830 830 830 830 829 829 829 829 829 829 829 830 829 829 828 828 827 827 827 827 826 826 826 825 825 824 823 823 822 822 821 821 820 819 819 819 819 818 818 819 818
827 828 830 831 831 831 831 831 830 830 830 830 831 831 831 830 830 830 829 828 828 827 827 827 827 827 826 826 825 825 824 824 823 823 822 822 821 821 820 820 820 820 820
827 829 831 832 832 832 832 832 832 832 832 832 832 832 832 831 831 830 830 829 829 828 827 827 827 827 826 826 826 826 826 826 825 825 824 823 823 823 822 822 822 821 821
828 830 831 832 833 833 834 834 834 834 833 833 833 833 832 832 831 831 831 831 830 829 829 828 828 827 827 827 826 826 827 827 826 825 825 825 824 823 823 823 823 823 823
829 830 832 833 833 834 835 835 835 835 834 834 834 833 832 832 832 831 831 831 831 830 830 829 829 828 827 827 827 827 827 827 826 826 825 825 825 824 824 824 824 823 823
829 831 832 833 834 834 835 836 835 835 835 835 834 834 833 832 832 831 831 831 831 831 830 830 829 828 828 827 827 827 827 827 826 826 825 825 825 825 824 824 823 823 823
829 831 833 834 834 835 835 835 836 835 835 835 835 834 833 833 832 831 830 830 831 831 830 830 829 828 828 827 826 826 826 826 826 825 825 825 825 825 824 824 824 824 823
830 831 834 835 835 835 835 836 836 836 835 835 835 834 833 833 832 831 831 830 830 830 830 829 828 827 827 826 825 825 825 825 824 824 824 824 824 824 824 823 823 823 823
831 832 834 835 835 835 836 835 835 835 835 835 835 834 833 833 832 831 831 830 829 829 829 828 827 827 826 825 825 824 824 823 823 822 822 822 823 823 824 822 822 822 822
833 834 834 835 835 835 835 835 835 835 835 834 834 833 833 832 831 830 830 829 828 827 827 826 825 825 824 824 823 823 822 822 821 821 821 821 821 821 821 821 821 821 821
834 835 835 836 836 836 835 835 835 835 834 834 833 832 831 830 830 829 828 827 826 825 824 823 822 822 822 821 821 820 820 819 819 818 818 818 818 818 818 818 818 819 819
835 836 836 836 837 837 836 835 835 834 833 833 832 831 830 829 828 827 826 825 824 823 822 821 819 818 818 817 817 817 816 816 815 815 814 814 814 815 815 815 816 816 816
836 836 837 837 837 837 836 835 834 833 832 831 830 829 828 827 826 825 824 823 822 821 819 818 817 815 815 814 814 813 813 812 811 810 810 810 811 811 811 811 812 812 812
836 836 836 837 837 836 835 834 833 832 831 830 829 827 826 825 824 823 821 820 819 818 817 816 814 813 812 811 811 809 808 807 806 806 805 805 806 807 807 808 807 807 807
835 836 836 836 836 835 834 833 832 831 830 828 827 826 824 822 821 820 819 818 817 815 814 813 811 810 809 808 807 806 805 804 802 801 800 800 801 801 802 802 802 803 803
835 835 835 835 835 834 833 831 830 830 828 827 826 824 823 821 819 818 817 816 814 813 812 810 808 807 806 805 804 803 801 800 800 798 797 796 795 795 796 796 797 798 798
833 833 833 834 834 832 831 830 829 828 827 826 825 823 822 820 818 816 815 814 812 811 809 807 806 804 802 801 800 799 797 796 795 794 793 792 790 790 789 789 789 790 791
832 832 832 832 832 831 830 829 828 827 826 825 823 821 820 818 816 814 813 812 810 808 806 804 802 800 799 797 795 794 792 791 790 789 788 787 786 783 783 781 781 783 784
831 832 832 831 831 830 829 828 827 826 824 823 821 819 817 815 814 812 811 809 808 805 803 801 800 798 795 794 792 790 788 786 785 784 784 782 781 779 777 776 775 775 776
831 831 831 830 829 829 828 826 825 824 823 821 819 817 815 813 812 811 809 808 806 804 802 801 799 797 795 792 788 786 784 782 781 780 779 778 776 774 772 770 768 768 769
829 829 829 829 828 827 826 825 823 822 821 819 817 814 812 810 810 808 807 805 804 803 801 800 797 795 792 790 786 782 778 776 776 776 775 773 771 769 765 764 762 760 760
827 828 828 827 827 827 825 824 823 821 819 818 815 813 812 810 808 807 806 804 803 801 800 799 796 794 792 790 788 783 779 775 774 774 772 771 769 767 763 761 757 755 753
826 826 826 826 826 825 824 823 821 820 819 817 814 813 811 809 808 806 805 803 802 800 799 798 796 794 791 789 788 789 783 778 777 771 770 768 767 764 761 758 755 753 750
823 825 825 825 824 823 822 821 820 818 817 815 814 812 810 809 807 805 804 802 800 799 798 796 795 793 790 788 787 787 787 785 781 774 769 766 765 762 759 757 753 750 748
822 823 823 823 822 821 820 818 818 817 816 814 813 812 810 808 806 804 803 801 800 798 796 795 793 792 790 788 787 784 783 781 779 778 772 766 763 762 759 756 753 750 749
820 820 820 820 819 818 818 817 816 815 814 813 812 810 808 807 805 803 802 800 799 797 795 793 792 790 788 787 784 784 784 783 778 776 770 766 763 760 758 755 752 751 751
Wind_Speed
9 9 6 5 5 5 7 7 7 7 7 8 8 8 6 6 6 6 6 6 7 7 8 7 7 7 6 5 8 8 8 8 9 10 12 12 11 11 10 11 14 12 12
10 9 7 5 4 6 8 8 8 7 8 7 7 7 6 5 4 4 3 4 5 5 6 5 5 5 5 4 5 5 7 9 10 8 7 8 7 8 9 11 11 10 10
12 9 8 6 5 6 7 8 8 7 7 6 5 5 5 3 2 3 0 2 3 3 3 4 3 3 3 3 3 3 5 6 5 5 5 4 5 6 8 9 10 8 10
8 7 8 6 5 5 4 5 6 7 6 4 3 4 5 6 2 2 1 1 1 2 2 2 2 2 2 2 2 3 4 3 0 3 3 3 3 2 7 9 8 8 6
8 7 7 6 5 4 3 3 3 4 5 5 5 4 5 5 4 3 3 4 3 3 2 2 2 2 2 2 1 2 5 4 3 2 3 3 2 3 5 8 7 6 8
9 8 7 6 5 3 1 0 2 3 2 3 4 5 6 6 5 5 6 6 5 5 4 4 4 4 4 4 3 4 6 6 6 3 3 5 5 4 4 8 5 6 6
12 11 8 6 4 3 1 1 2 3 3 4 5 5 6 7 6 6 5 5 7 6 6 6 6 7 7 6 5 5 7 9 8 7 6 8 9 7 6 7 6 6 6
12 10 8 5 3 1 1 1 2 3 4 5 6 7 7 8 8 8 7 5 7 9 9 9 9 10 10 9 8 8 7 10 11 11 9 8 12 10 9 9 9 8 8
11 10 8 6 4 3 2 1 2 3 4 5 7 7 8 9 9 9 9 9 10 12 12 12 12 12 12 12 12 11 10 10 13 15 13 10 11 12 13 10 10 10 10
11 9 7 4 4 3 1 2 3 4 5 6 6 7 8 8 9 9 11 10 12 14 15 15 15 15 14 14 14 14 14 14 15 16 17 15 13 15 16 15 13 13 12
9 7 5 2 2 2 2 4 5 6 6 7 8 8 8 9 10 10 9 13 13 15 16 18 18 18 17 16 17 17 18 19 18 18 19 20 18 17 19 19 17 16 15
6 4 2 1 3 4 5 7 7 8 8 8 9 9 10 10 10 11 11 10 13 15 16 18 18 19 19 20 20 20 21 22 22 22 22 21 22 22 20 21 21 19 18
4 2 1 3 5 6 7 8 8 9 10 10 11 11 11 11 11 12 13 13 13 12 13 15 16 15 15 17 21 23 24 24 26 25 25 24 23 24 24 23 23 23 21
4 2 3 5 7 8 9 9 10 11 11 11 12 12 13 14 14 15 14 13 13 13 13 13 14 15 16 17 16 17 19 21 25 27 28 25 25 25 26 25 26 26 25
5 4 5 7 8 9 9 10 10 11 12 12 13 13 14 14 14 15 14 14 13 13 14 15 15 16 16 17 17 17 18 19 21 24 25 26 27 27 28 31 28 28 27
7 6 6 8 8 9 10 10 11 12 12 12 12 13 12 13 13 13 13 12 12 12 13 14 15 16 17 17 18 18 19 19 19 20 22 24 26 29 29 31 31 31 30
8 7 8 8 8 9 10 10 11 12 12 12 12 12 12 11 12 12 13 14 14 15 17 17 18 18 19 19 19 20 20 20 22 23 23 23 23 25 27 35 33 35 35
9 8 8 8 9 9 10 10 11 11 12 12 14 14 14 14 15 15 15 15 15 16 17 17 17 19 19 21 22 21 21 20 21 21 22 23 25 26 27 25 33 36 39
8 8 8 8 8 8 10 10 11 12 12 14 15 14 14 14 12 11 11 12 14 15 14 13 15 15 19 20 19 20 20 19 19 21 22 23 22 23 26 26 27 30 39
8 8 8 8 8 9 10 12 12 11 12 15 15 14 12 11 13 13 12 11 9 11 12 13 14 15 15 18 20 18 17 16 19 19 19 20 23 27 28 28 30 28 28
10 9 9 10 8 9 11 12 14 14 17 16 14 12 12 10 10 12 10 8 8 11 12 13 14 16 17 18 11 19 19 12 12 17 18 16 13 18 17 21 26 26 28
10 10 10 10 9 9 11 11 11 14 12 15 12 10 10 10 9 8 8 7 8 9 10 12 14 16 13 17 8 11 3 10 11 27 20 17 19 20 23 19 19 20 22
13 12 11 11 9 10 10 11 11 12 13 10 11 10 11 9 8 8 7 7 8 10 10 12 13 12 12 16 14 4 3 2 12 5 25 16 22 16 18 16 16 19 16
15 12 13 12 11 9 10 11 11 11 11 10 10 11 11 9 9 8 7 8 9 9 10 10 12 13 11 14 15 2 11 12 3 4 10 23 7 14 19 19 16 13 12
13 14 13 12 12 10 11 10 10 11 9 8 7 8 10 11 10 7 7 8 9 9 10 12 14 14 11 11 13 14 16 14 11 5 5 9 18 13 15 18 18 18 16
12 13 13 14 14 12 11 11 11 10 8 7 5 7 9 10 11 8 9 10 9 9 11 12 14 13 13 12 13 12 12 8 8 6 3 6 7 12 17 16 18 14 17
Wind_Direction
156 152 151 140 97 78 72 80 90 94 94 89 84 67 66 82 85 74 66 63 69 74 71 79 82 82 77 79 76 80 80 94 97 85 81 100 98 95 93 102 95 87 83
153 154 156 153 116 96 76 74 83 88 89 88 79 74 65 78 86 59 53 77 73 83 82 85 88 81 75 82 93 93 98 99 92 78 83 86 91 99 103 106 98 96 96
157 154 157 149 128 114 85 73 73 78 80 80 71 55 40 30 40 19 109 85 74 71 67 80 114 107 79 83 100 123 129 120 106 59 65 86 86 110 121 113 109 98 104
144 159 156 152 138 114 103 76 64 62 62 60 49 36 30 19 339 337 257 308 350 13 21 68 54 64 80 70 113 154 164 167 303 325 221 115 109 109 154 136 127 117 118
155 153 157 153 148 127 99 73 62 47 46 39 29 14 13 17 9 307 289 265 279 308 321 322 328 348 346 331 272 203 190 201 260 326 188 182 164 149 167 151 143 144 142
163 157 155 155 155 149 151 59 44 24 358 358 5 8 3 3 358 341 287 258 268 284 297 295 296 303 308 309 308 247 228 236 258 229 219 219 218 195 194 181 176 158 154
148 151 153 157 166 150 196 271 298 322 327 319 327 338 344 344 347 345 341 267 263 266 286 285 283 286 291 291 291 279 250 250 261 251 273 240 222 215 212 206 205 191 184
139 139 145 151 148 116 68 17 334 322 328 321 320 322 324 326 329 331 328 296 269 267 281 283 280 278 281 282 283 276 266 255 250 257 273 270 236 235 224 217 213 208 205
131 135 132 137 133 130 108 72 34 4 347 336 327 323 319 315 314 315 312 298 286 282 284 283 280 279 278 280 282 280 273 266 258 253 260 266 237 240 241 228 227 216 215
128 123 119 116 93 85 79 9 353 339 332 332 333 331 325 318 314 312 308 305 301 291 288 284 281 279 277 276 278 280 278 271 266 261 259 257 255 242 243 242 237 231 228
124 116 110 85 36 14 353 329 327 329 323 316 313 312 309 311 312 311 308 300 298 297 293 289 285 282 280 278 278 277 277 274 271 266 262 255 254 251 247 243 244 238 239
127 112 93 34 345 328 317 316 314 311 309 313 315 313 309 309 307 307 309 302 292 292 294 293 297 286 276 276 279 278 275 278 276 272 268 262 257 251 252 249 247 245 245
160 148 350 337 328 318 314 311 312 312 310 307 307 309 309 307 304 304 304 302 302 308 311 305 301 303 302 298 291 286 283 279 277 276 274 269 261 257 250 248 250 245 250
185 232 297 314 318 316 317 319 321 320 318 316 317 316 311 309 309 311 313 315 315 314 313 311 314 314 311 310 303 299 299 297 291 283 278 275 263 263 252 252 250 247 245
218 249 286 307 311 314 320 324 326 327 327 326 323 320 316 313 313 311 307 307 308 307 308 306 304 302 303 305 304 303 298 298 301 295 288 278 269 269 261 251 252 246 245
225 249 281 297 303 314 321 326 329 329 328 328 328 327 325 323 321 316 315 315 316 319 319 317 317 313 308 307 303 301 297 298 299 301 300 295 286 279 272 264 255 248 243
229 257 280 288 299 311 317 322 326 327 327 328 330 331 334 329 323 319 315 313 314 314 311 308 304 303 305 303 302 298 296 295 296 296 297 297 298 293 286 267 261 254 248
234 255 267 275 288 301 309 314 321 323 324 322 321 321 320 315 312 311 310 312 316 318 317 316 317 314 310 305 308 306 304 298 294 295 297 298 295 291 294 289 264 260 249
237 256 263 271 284 294 304 311 316 319 321 324 322 320 316 319 322 318 320 322 327 332 340 339 332 332 326 323 319 313 312 306 302 298 294 294 295 293 289 285 278 275 250
234 253 263 270 280 292 303 310 313 317 323 327 327 326 322 315 318 316 315 320 334 346 355 359 357 349 343 339 327 317 314 308 307 304 302 299 295 291 287 287 288 278 265
230 249 264 270 281 289 306 319 324 327 332 334 336 339 338 331 325 318 304 315 330 343 349 352 350 346 344 354 341 337 321 311 308 305 310 328 340 330 311 299 291 286 279
232 249 256 273 278 292 304 313 316 323 329 335 342 344 352 348 348 346 342 336 339 346 357 358 356 346 334 352 335 318 329 320 10 327 325 323 326 326 321 314 318 295 279
233 247 262 271 273 289 299 306 311 316 323 335 351 357 1 357 1 353 348 345 345 339 338 345 338 336 323 339 351 315 330 338 335 337 322 323 324 335 339 328 319 313 300
241 255 259 261 271 284 295 303 308 313 314 325 338 341 346 356 353 355 353 347 343 339 335 331 343 338 330 330 344 0 301 291 306 315 318 319 331 334 343 335 342 328 309
246 255 259 254 266 278 292 297 296 293 295 313 330 330 337 347 351 352 350 348 342 342 340 340 337 337 335 326 332 328 321 320 287 259 304 316 325 322 333 330 325 345 351
253 253 253 257 265 273 286 289 288 280 286 292 308 317 325 333 332 342 342 340 339 347 351 334 333 333 334 330 341 334 303 290 292 281 269 296 291 320 333 334 329 338 337